Location: Waco, TX
(31.5480°N, 97.1670°W)
Time: 19:39:04
(UTC-05:00)

ISS - Pass Details

Date: 13 January 2019
Orbit: 408 x 410 km, 51.6° (Epoch: 25 April)

Event Time Altitude Azimuth Distance (km) Brightness Sun altitude
Rises 23:08:21 0° 264° (W) 2,350 - -67.6°
Reaches altitude 10° 23:11:06 10° 288° (WNW) 1,489 - -68.2°
Maximum altitude 23:13:08 15° 326° (NW) 1,220 - -68.6°
Drops below altitude 10° 23:15:10 10° 4° (N) 1,491 - -69.0°
Sets 23:17:56 0° 28° (NNE) 2,355 - -69.5°
